Location: Unspecified
(64.9000°N, 0.0000°E)
Time: 17:32:56
(UTC+00:00)

Explorer 7 - All Passes

Search period start: 25 June 2019 00:00
Search period end: 05 July 2019 00:00
Orbit: 485 x 680 km, 50.3° (Epoch: 24 June)

Date Brightness Start Highest point End Pass type
(mag) Time Alt. Az. Time Alt. Az. Time Alt. Az.
25 Jun - 09:01:49 10° SSE 09:02:25 10° SSE 09:03:00 10° SSE daylight
25 Jun - 10:39:22 10° SSW 10:41:33 13° S 10:43:45 10° SSE daylight
25 Jun - 12:20:27 10° SSW 12:20:41 10° SSW 12:20:56 10° SSW daylight
26 Jun - 09:05:36 10° S 09:07:05 11° SSE 09:08:35 10° SE daylight
26 Jun - 10:44:13 10° SSW 10:46:15 13° S 10:48:19 10° SSE daylight
27 Jun - 09:09:56 10° SSW 09:11:46 12° S 09:13:37 10° SSE daylight
27 Jun - 10:49:15 10° SSW 10:50:56 12° SSW 10:52:40 10° S daylight
28 Jun - 09:14:31 10° SSW 09:16:28 13° S 09:18:26 10° SSE daylight
28 Jun - 10:54:39 10° SSW 10:55:37 11° SSW 10:56:37 10° S daylight
29 Jun - 07:41:44 10° SSE 07:42:02 10° SSE 07:42:20 10° SSE daylight
29 Jun - 09:19:16 10° SSW 09:21:10 13° S 09:23:06 10° SSE daylight
30 Jun - 07:45:25 10° S 07:46:42 11° SSE 07:48:01 10° SSE daylight
30 Jun - 09:24:11 10° SSW 09:25:52 12° S 09:27:35 10° SSE daylight
01 Jul - 07:49:48 10° SSW 07:51:23 12° S 07:53:01 10° SSE daylight
01 Jul - 09:29:22 10° SSW 09:30:33 11° SSW 09:31:45 10° S daylight
02 Jul - 07:54:25 10° SSW 07:56:06 12° S 07:57:47 10° SSE daylight
03 Jul - 07:59:14 10° SSW 08:00:48 12° S 08:02:23 10° SSE daylight
04 Jul - 06:25:18 10° S 06:26:20 11° S 06:27:23 10° SSE daylight
04 Jul - 08:04:17 10° SSW 08:05:29 11° S 08:06:43 10° S daylight
